{"data":{"norad_id":66379,"epoch":"2026-09-20T23:02:03.444576Z","epoch_age_seconds":91988,"freshness":"FRESH","line1":"1 66379U 25255D   26263.95976209  .00006195  00000+0  15319-3 0  9998","line2":"2 66379  52.9947 279.9281 0008101 124.3731 235.8040 15.41848969 48759","mean_motion":15.41848969,"eccentricity":0.0008101,"inclination_deg":52.9947,"raan_deg":279.9281,"arg_perigee_deg":124.3731,"mean_anomaly_deg":235.804,"bstar":0.00015319,"rev_number":4875,"period_min":93.394361507012,"perigee_km":435.1286161965,"apogee_km":446.17641897289,"semimajor_km":6818.7895175847,"source":"CELESTRAK","updated_at":"2026-09-21T09:00:15.951842Z"}}